Theta_e
320 309 307 308 301 299 295 298 303 303 305 311 311 309 307 309 302 302 318 324 323 329 336 342 342 344 342 340 336 336 337 338 339 339 340 340 340 340 340 339 339 340 339 339 338 338 337 336 336
309 309 307 302 295 291 294 299 301 304 306 308 310 310 309 308 312 314 317 323 325 334 339 341 340 342 341 340 337 337 336 337 339 339 340 340 340 340 341 340 339 339 338 336 335 334 335 335 334
305 304 303 298 292 291 293 299 300 304 305 305 306 310 310 309 313 316 319 323 329 334 338 339 340 341 341 339 338 337 336 336 338 340 340 340 340 340 340 339 338 338 337 336 334 332 332 333 332
302 301 297 294 291 295 297 298 298 301 305 307 308 306 310 313 313 318 322 325 332 334 338 338 340 342 341 339 338 338 337 335 338 339 340 340 339 338 337 337 337 336 336 335 333 331 330 330 330
298 296 290 289 290 294 296 299 297 299 303 304 305 304 308 312 317 323 324 328 330 334 337 339 339 341 340 339 338 337 336 336 338 338 339 338 338 337 336 336 335 334 334 333 332 331 328 328 327
294 292 286 285 287 291 293 297 296 299 301 303 304 304 308 313 319 323 326 327 332 334 336 338 334 336 337 337 337 336 336 336 337 338 338 337 336 335 333 333 334 333 333 331 331 330 329 327 326
292 288 284 284 285 288 292 295 296 297 299 300 306 303 307 310 318 324 326 330 332 334 336 337 337 335 331 334 335 335 335 336 337 337 336 335 334 334 333 333 334 332 332 330 328 329 327 325 325
291 289 285 285 285 287 293 293 296 297 297 303 307 303 304 310 321 325 328 329 331 333 335 334 335 335 335 335 329 330 332 334 334 334 332 329 329 330 330 330 332 333 331 330 328 327 325 324 325
294 286 282 285 285 288 293 292 295 298 298 301 305 305 307 315 323 322 323 325 327 329 332 333 333 334 333 332 328 327 328 329 329 329 326 324 327 328 329 326 329 332 330 329 328 325 324 324 325
291 284 285 288 289 288 291 292 293 294 294 297 302 308 311 318 319 318 318 320 322 325 330 332 332 332 332 330 328 330 329 330 329 328 326 324 325 324 324 322 325 328 327 328 327 324 319 315 314
289 285 287 289 290 291 290 290 293 291 290 294 298 303 310 314 316 317 318 320 321 325 328 331 331 332 330 330 328 327 328 326 325 325 324 323 320 320 321 324 322 323 319 321 319 312 309 311 311
284 288 289 291 291 291 289 291 290 291 292 296 297 306 307 311 314 316 318 320 321 323 326 330 331 330 329 329 328 326 325 324 322 322 321 320 318 317 318 320 319 316 315 314 311 307 307 307 306
283 285 287 289 288 289 290 289 289 289 293 294 295 304 306 308 313 317 319 320 322 322 325 328 330 329 329 326 328 325 324 322 322 320 319 319 317 317 317 317 317 315 312 311 308 304 305 305 304
285 286 286 287 287 287 286 286 287 289 292 291 292 294 301 306 308 311 315 318 320 323 323 327 329 330 329 326 326 325 324 322 320 318 318 318 317 316 315 314 312 311 311 309 307 304 301 303 301
287 284 285 285 287 287 287 284 283 289 290 290 290 291 294 299 307 308 313 317 321 323 324 325 327 329 328 326 326 326 325 321 318 317 316 316 316 315 315 313 312 311 311 309 305 299 298 297 297
283 281 278 283 285 287 287 282 286 289 287 287 287 288 290 293 298 307 309 312 319 323 323 324 326 327 327 325 325 325 325 322 319 316 316 315 315 315 313 312 312 311 309 307 304 299 296 297 297
279 275 276 279 285 285 284 282 285 287 287 286 286 286 287 289 291 294 303 310 312 321 322 323 326 326 325 325 324 324 324 322 320 317 315 314 314 314 313 312 311 310 308 306 302 297 297 295 294
275 276 276 276 279 281 281 281 283 285 284 284 284 285 285 287 289 292 293 301 311 315 321 323 324 325 326 325 324 323 322 322 321 318 315 314 313 312 313 312 310 309 308 305 301 299 295 295 295
279 277 274 276 281 280 278 279 280 283 283 283 285 286 288 287 290 291 292 294 301 311 315 321 322 322 324 323 321 320 318 320 320 318 317 314 314 312 312 311 309 310 308 306 303 298 295 293 293
280 278 277 280 281 281 279 279 283 283 284 285 286 286 287 289 288 290 291 291 293 302 311 316 320 322 322 324 323 323 322 321 320 319 318 316 314 313 312 311 308 309 308 306 303 299 294 294 294
281 279 279 278 281 281 279 278 280 283 285 286 287 288 288 288 289 289 290 291 291 292 300 311 317 321 323 323 323 323 323 321 318 317 317 316 315 313 312 312 310 308 308 306 304 301 299 294 293
278 281 281 280 278 273 279 270 277 279 281 283 284 285 286 287 288 288 289 289 289 290 293 301 312 317 321 323 322 320 319 317 317 317 318 316 315 314 313 312 311 308 308 307 305 303 301 299 294
279 283 281 280 277 276 275 272 274 278 278 280 283 284 284 285 286 285 287 289 290 291 290 293 302 312 317 321 321 320 319 319 318 318 317 316 314 315 314 313 311 309 308 307 305 302 302 300 297
285 280 281 280 276 271 274 273 274 275 278 280 282 281 282 283 285 287 289 290 290 291 292 292 295 303 312 317 320 320 319 319 317 316 316 315 314 313 313 313 312 310 309 307 304 304 302 299 299
280 275 270 268 268 268 273 272 275 278 279 280 280 281 282 284 285 286 287 288 289 290 292 293 294 295 304 313 317 319 319 319 318 317 316 315 314 312 312 312 312 311 310 309 307 303 301 301 299
277 277 271 265 265 267 273 270 275 279 280 280 281 282 283 283 284 285 286 287 287 289 290 292 293 294 301 309 314 318 319 318 318 318 318 317 315 314 315 312 312 312 311 309 307 304 302 301 301
274 273 279 273 273 270 272 275 279 280 277 277 278 280 281 282 283 284 286 286 287 288 289 291 292 294 297 306 312 316 318 319 318 318 319 318 317 316 314 313 312 311 311 309 307 305 302 301 301
276 277 270 271 262 263 269 271 273 275 274 275 276 278 279 280 282 284 285 286 287 288 288 290 291 293 297 304 311 314 316 317 319 318 316 318 317 316 314 313 312 311 311 309 307 306 304 302 301
273 271 272 270 270 265 265 268 275 274 275 275 276 278 278 279 281 282 284 286 286 286 287 289 290 291 294 300 308 313 315 315 317 318 317 317 317 315 314 313 311 311 310 309 307 306 305 302 301
273 272 271 264 263 267 268 268 277 276 276 278 277 278 279 280 280 281 283 284 285 286 287 287 289 290 292 295 303 310 314 316 315 317 316 317 317 316 314 313 311 311 310 309 307 306 305 302 301
Wind_Speed
7 5 2 5 3 3 2 4 2 2 0 1 2 4 6 3 4 2 4 9 7 12 9 12 18 20 18 17 18 15 15 13 12 15 14 13 12 9 16 14 17 18 19 21 19 19 21 22 23
3 1 4 3 4 2 4 3 4 4 1 3 3 2 2 3 2 2 5 7 9 13 10 11 16 19 18 16 16 15 14 12 11 15 16 13 14 16 21 20 21 21 21 20 17 17 19 19 22
1 4 4 4 3 5 4 4 3 2 2 3 4 1 1 2 2 9 2 11 12 12 10 11 16 18 18 16 15 15 14 12 10 15 14 14 18 16 19 18 19 20 20 19 16 14 16 18 20
3 4 4 4 5 5 5 5 2 3 1 2 2 3 1 0 2 5 9 14 15 11 10 14 18 18 18 16 14 13 13 12 12 14 16 17 18 17 15 17 16 16 17 18 15 15 15 16 17
4 3 3 1 4 4 4 4 2 1 1 1 2 3 1 1 2 7 12 13 16 11 9 12 16 18 17 17 14 13 12 11 12 13 16 15 16 18 15 15 15 15 15 15 16 15 14 14 14
4 3 3 3 5 4 5 5 1 2 2 1 2 4 2 1 5 7 11 12 12 14 11 11 11 13 16 16 14 14 14 13 12 13 16 16 14 13 14 12 13 14 14 14 15 14 14 15 13
6 4 5 4 3 4 5 4 4 4 3 4 4 4 1 2 3 7 9 11 11 11 11 10 10 10 12 13 11 13 12 11 10 14 15 14 12 11 10 12 11 12 16 16 14 14 13 12 11
5 5 5 4 5 6 3 2 1 4 5 2 1 4 2 2 7 8 9 10 11 11 12 10 10 10 10 10 10 10 10 10 8 9 11 13 12 11 10 10 12 15 17 16 17 12 14 12 12
3 5 3 6 8 6 3 4 1 1 1 1 1 2 1 6 12 11 11 11 9 9 11 9 11 10 10 9 9 8 9 9 7 10 11 11 7 8 10 8 13 16 15 14 17 14 15 12 10
5 4 10 6 5 4 3 2 3 2 4 0 1 4 4 9 12 13 13 12 15 12 11 10 12 12 11 7 7 8 7 7 6 6 8 6 8 7 7 9 8 13 13 15 18 16 15 10 4
4 6 5 4 5 2 1 2 1 3 3 6 4 3 6 9 9 12 13 13 14 12 9 12 11 11 12 8 6 4 5 5 5 9 7 8 5 3 5 4 4 5 7 4 10 7 5 7 5
2 5 4 2 3 4 4 1 3 6 8 3 4 2 6 10 12 13 12 14 15 12 10 11 13 11 11 8 7 7 7 6 6 7 9 7 4 4 6 5 6 5 4 7 6 4 7 6 6
3 3 2 3 4 5 3 7 6 5 10 6 3 4 7 8 11 10 7 6 12 13 11 11 11 12 11 10 8 7 7 7 8 8 8 8 7 7 6 7 5 5 4 6 5 5 6 5 5
1 3 6 4 3 3 4 5 8 7 12 8 4 9 8 9 13 5 7 11 12 13 13 12 13 12 11 10 12 9 8 9 9 8 8 10 8 7 7 6 5 4 4 5 6 5 5 4 4
1 4 5 4 3 4 5 8 9 12 7 10 10 10 8 10 4 13 15 13 14 13 12 14 12 11 12 12 11 10 9 9 9 9 10 10 10 10 10 7 6 6 6 8 7 6 4 4 2
2 2 1 3 5 7 6 23 6 11 8 10 7 8 8 9 9 10 8 10 10 11 13 12 11 13 13 13 10 9 10 9 9 9 9 11 11 12 10 8 8 8 7 7 6 6 5 5 5
3 4 5 5 8 1 8 8 2 3 3 8 7 5 6 7 7 9 10 10 10 13 13 14 14 15 16 13 11 11 11 10 9 9 9 13 12 12 10 9 8 11 8 7 7 4 5 4 4
6 5 4 5 1 1 7 13 7 8 6 8 10 11 6 7 11 9 9 9 10 12 15 14 14 15 16 12 10 9 9 9 9 9 10 14 12 14 11 9 10 10 8 8 8 7 3 3 6
1 3 5 3 1 5 7 12 8 8 9 9 11 13 11 7 9 8 9 9 9 11 14 17 18 20 13 12 11 11 12 12 10 10 14 15 14 15 13 9 10 11 10 11 11 6 7 3 4
5 8 11 5 7 5 10 21 14 8 11 14 15 14 14 12 7 10 9 7 8 11 14 17 19 21 17 12 12 12 12 11 11 10 12 16 17 16 14 13 12 13 10 11 12 10 5 4 7
9 11 11 9 5 5 8 15 11 9 14 15 14 13 12 10 12 7 8 9 7 10 13 16 19 20 20 19 12 10 10 9 9 11 11 14 16 16 17 16 13 13 12 11 13 12 12 7 6
10 2 9 10 6 4 3 8 4 2 8 6 8 7 8 9 7 7 8 8 7 9 9 11 14 16 16 19 17 19 13 11 10 11 12 12 17 17 17 17 16 15 11 12 13 11 12 8 8
4 4 4 3 5 1 5 4 6 1 6 6 8 5 6 5 5 6 5 5 7 6 6 9 12 14 16 16 18 16 18 12 10 10 13 14 15 18 17 17 16 15 12 13 14 14 14 10 9
5 3 5 4 3 7 10 9 11 6 7 4 3 6 7 6 7 7 5 7 7 7 5 5 8 13 15 18 21 22 21 19 13 13 12 11 11 13 16 17 16 15 14 15 14 15 17 14 10
4 2 4 3 4 6 7 8 15 5 0 1 5 7 7 7 7 7 9 11 11 10 10 7 6 11 14 17 20 23 23 21 21 18 14 14 11 11 16 19 17 15 15 15 14 14 15 15 14
2 3 4 5 4 4 3 7 7 1 8 7 6 6 4 7 7 8 7 8 9 10 9 9 9 10 9 14 19 19 22 15 16 18 14 13 13 14 18 17 17 18 17 15 14 12 13 14 14
0 3 3 5 3 6 5 5 9 4 5 6 7 4 5 8 8 10 11 8 9 9 11 10 11 11 9 12 14 17 18 20 17 19 15 14 15 13 17 19 19 18 17 17 16 12 14 14 14
5 0 2 2 3 5 4 6 9 5 4 4 7 7 7 5 7 11 9 10 8 8 9 9 9 9 10 9 12 13 17 20 18 16 18 16 15 16 16 18 18 18 18 17 17 14 13 14 12
2 2 1 2 3 3 5 5 4 4 3 3 4 2 5 7 9 10 11 9 9 9 8 9 9 10 11 8 7 12 14 19 17 17 16 15 14 16 16 18 18 18 17 17 17 16 15 17 15
2 8 7 5 7 3 3 9 2 5 3 4 7 4 4 6 8 10 10 10 8 8 8 8 8 10 10 11 8 8 11 14 15 17 18 12 14 14 16 17 17 18 17 17 18 18 16 18 18
Wind_Direction
327 328 51 45 61 62 245 251 286 257 245 286 108 150 181 141 190 228 335 184 148 144 152 154 152 144 139 144 143 144 149 151 146 160 155 146 147 144 163 153 141 125 118 109 104 106 104 104 104
325 47 45 85 99 110 260 262 241 234 141 108 70 76 155 173 125 90 115 198 166 147 148 149 145 141 144 145 143 145 150 144 149 161 153 155 146 118 122 125 122 118 110 109 110 108 107 106 105
202 28 94 102 127 180 211 213 237 272 189 182 129 51 142 152 125 163 209 152 152 149 143 142 144 144 144 147 145 150 152 156 144 154 151 148 141 130 123 124 122 119 118 115 110 107 111 111 112
40 16 44 104 200 241 206 202 225 305 128 151 134 114 262 3 151 182 147 148 149 147 146 150 150 149 147 147 149 154 152 167 142 145 140 138 130 126 126 125 124 123 126 124 122 118 111 115 120
37 58 73 113 249 256 244 249 247 250 213 196 160 188 221 102 64 129 140 147 149 144 146 155 155 154 151 146 158 159 156 164 156 153 138 132 133 127 122 122 127 132 132 129 125 129 129 117 115
52 91 86 210 245 261 267 227 194 236 223 150 109 160 201 64 133 149 144 145 149 149 149 157 157 155 152 151 160 165 167 171 170 159 146 137 136 128 130 134 137 139 140 136 138 137 137 132 122
120 101 198 177 258 296 242 162 192 189 189 229 160 145 126 184 147 145 138 136 139 148 149 153 156 159 153 154 168 162 167 165 168 162 151 146 144 138 142 145 152 156 143 137 137 128 131 126 133
106 93 138 214 192 251 230 226 268 169 225 54 202 190 215 148 134 128 131 139 145 154 162 159 156 158 155 159 158 160 166 159 173 175 159 138 139 132 139 146 139 140 141 141 123 138 124 132 140
133 79 196 219 163 240 211 175 212 272 18 32 90 61 342 134 136 144 154 160 158 164 168 166 162 165 159 158 163 159 148 150 158 137 144 137 141 138 145 145 143 134 134 135 127 126 112 80 111
110 145 211 204 199 208 198 189 173 114 17 22 341 94 84 151 159 164 172 176 180 179 177 173 171 171 164 163 159 163 153 156 150 136 145 135 138 142 131 132 127 133 137 136 130 115 104 91 82
153 189 219 247 197 215 193 289 268 129 270 222 199 176 144 170 181 183 186 192 194 187 183 181 178 173 170 166 159 159 159 156 155 155 157 136 125 141 128 124 110 109 102 94 104 102 86 107 111
208 228 197 272 221 163 204 289 251 180 226 132 193 133 159 179 197 201 199 200 197 197 190 178 185 177 177 166 174 172 164 165 165 168 157 143 138 141 139 134 128 121 114 105 102 103 110 111 108
201 255 209 323 294 254 314 251 224 241 266 262 237 185 199 203 206 206 199 207 203 202 200 188 183 184 178 174 174 174 172 171 174 172 173 158 153 159 154 146 143 135 123 121 113 119 130 130 125
312 303 291 306 277 270 225 250 148 244 244 264 229 236 231 215 214 190 203 206 208 207 203 195 196 192 180 189 179 179 176 177 174 178 181 171 159 163 164 156 143 138 137 124 132 135 141 152 151
333 307 309 238 244 254 182 259 216 233 223 235 221 230 235 232 202 211 215 212 207 210 204 199 195 194 191 198 192 183 183 176 178 180 182 178 167 167 168 163 160 160 153 138 129 125 132 137 146
338 113 302 299 203 242 137 260 262 235 237 255 254 252 243 250 239 240 237 226 214 209 206 198 192 194 195 199 189 190 188 186 185 181 177 182 178 169 165 167 170 160 158 154 154 153 157 168 175
3 246 204 282 207 308 195 272 328 351 232 279 285 263 265 269 272 255 247 227 216 210 212 205 198 197 199 202 193 191 190 193 190 183 183 182 180 177 171 176 170 163 164 166 160 162 161 174 182
195 223 233 220 289 264 265 260 291 308 319 289 296 293 249 250 256 255 248 233 222 213 213 211 206 207 204 196 197 190 187 195 190 193 188 184 184 182 177 175 169 168 168 169 168 167 174 169 175
41 280 254 290 280 10 270 278 267 273 290 282 280 283 283 241 248 236 246 240 230 217 213 210 209 214 203 199 190 193 195 194 194 193 190 189 189 185 184 176 172 176 178 180 177 156 170 164 166
238 264 275 277 241 221 270 275 281 262 259 257 267 265 266 270 260 264 257 251 231 232 221 219 213 210 209 203 200 207 204 199 198 189 194 196 193 184 184 181 182 182 178 181 180 173 152 163 175
234 239 260 261 324 249 269 278 252 253 243 253 255 255 265 253 268 262 271 261 251 237 227 220 218 215 208 205 204 207 213 197 189 190 195 201 195 192 188 187 183 183 184 187 186 185 178 168 188
266 289 243 243 256 245 152 292 275 232 254 236 262 264 256 264 272 274 296 302 285 257 245 236 225 221 221 210 207 207 207 203 197 199 201 193 194 196 197 193 188 185 185 189 189 183 190 167 181
250 27 295 222 208 216 213 265 272 251 286 276 264 282 293 319 326 326 327 307 309 307 275 249 231 221 216 213 214 214 212 207 194 201 200 197 194 197 198 195 192 189 190 191 187 182 188 194 177
140 339 297 223 192 227 229 187 273 226 224 222 21 16 4 3 10 350 326 318 318 320 327 296 256 239 220 211 210 213 214 208 198 199 193 195 194 195 195 197 197 196 194 191 188 187 188 190 189
189 115 282 233 211 246 171 177 245 286 351 11 95 55 6 349 351 343 347 341 335 331 325 324 293 256 239 223 217 213 213 210 208 199 196 191 192 192 197 195 198 198 198 198 188 187 190 189 191
180 210 233 268 207 252 135 220 241 98 84 77 70 64 354 343 337 334 326 318 316 319 315 316 314 297 250 232 224 220 217 213 210 213 201 199 196 195 196 196 199 200 199 199 192 190 192 192 199
137 217 309 301 243 256 208 273 288 170 67 47 44 67 347 333 339 326 322 315 313 318 314 314 316 314 281 246 229 220 218 217 214 212 212 203 199 196 195 193 196 198 198 196 193 197 195 191 195
198 8 28 274 266 248 229 236 232 37 51 31 26 3 343 329 328 325 320 315 314 308 304 310 312 313 295 265 232 225 219 221 217 217 215 208 200 196 191 192 195 197 196 194 194 197 198 195 197
144 220 162 161 228 283 291 276 201 183 162 347 331 332 311 325 320 310 308 305 301 301 306 311 325 329 328 310 249 227 224 227 220 220 216 208 201 193 190 191 193 196 197 194 195 200 194 195 197
219 213 172 150 254 226 259 261 270 210 224 303 288 274 262 285 291 294 295 300 304 308 320 324 324 337 333 324 303 247 224 227 225 219 221 198 199 196 191 192 193 194 196 197 196 200 199 198 198